Regional Weather Roundup
Issued by NWS Spokane, WA

Current Version | Previous Version | Text Only | Print | Product List | Glossary On
Versions: 1 2 3 4 5 6 7 8 9 10 11 12 13 14 15 16 17 18 19 20 21 22 23 24 25 26 27 28 29 30 31 32 33 34 35 36 37 38 39 40 41 42 43 44 45 46 47 48 49 50
000
NZUS01 KOTX 261410
RWROTX
EASTERN WASHINGTON/NORTHERN IDAHO ROUNDUP
NATIONAL WEATHER SERVICE, SPOKANE WA
700 AM PDT THU MAY 26 2016

Note: "fair" indicated few or no clouds below 12,000 feet with no
significant weather and/or obstructions to visibility.

...NORTHEAST WASHINGTON AND NORTHERN IDAHO PANHANDLE...

CITY           SKY/WX    TMP DP  RH WIND       PRES   REMARKS
SPOKANE INTL   PTSUNNY   50  43  77 S13       30.04R
SPOKANE DOWNTO MOSUNNY   54  43  66 SW7       30.05S
COEUR D ALENE  PTSUNNY   54  43  66 S8        30.03R
DEER PARK      MOSUNNY   52  43  71 S9        30.04S
SANDPOINT      PTSUNNY   54  46  76 SW7       30.02S
BONNERS FERRY  FAIR      55  50  82 CALM      30.00S

...SOUTHEAST WASHINGTON AND SOUTHERN IDAHO PANHANDLE...

CITY           SKY/WX    TMP DP  RH WIND       PRES   REMARKS
WALLA WALLA    CLOUDY    56  42  59 SW12      30.10R
PULLMAN/MOSCOW MOSUNNY   50  42  74 W8        30.08S
LEWISTON       MOSUNNY   55  48  77 CALM      30.05S
LOWELL           N/A     51  49  92 CALM      30.08R

...COLUMBIA BASIN...

CITY           SKY/WX    TMP DP  RH WIND       PRES   REMARKS
EPHRATA        MOSUNNY   59  39  47 N3        30.00S
MOSES LAKE     MOSUNNY   55  44  66 SE3       30.02R
TRI CITIES     MOSUNNY   57  45  64 S7        30.06S
HERMISTON      MOSUNNY   56  44  64 SW18G24   30.08R
PENDLETON      MOSUNNY   55  41  59 SW8       30.10R

...EAST SLOPES CASCADES...

CITY           SKY/WX    TMP DP  RH WIND       PRES   REMARKS
THE DALLES     PTSUNNY   56  42  59 NW15      30.14S
YAKIMA         MOSUNNY   51  39  63 S3        30.06R
ELLENSBURG     CLOUDY    51  40  65 NW24G33   30.05S
STAMPEDE PASS  FOG       35  33  92 VRB7      30.13R VSB 1/4 WCI  29
WENATCHEE      CLOUDY    58  37  45 W9        30.03S
OMAK           PTSUNNY   57  40  52 NW10      29.99S

...SOUTHERN BRITISH COLUMBIA...

CITY           SKY/WX    TMP DP  RH WIND       PRES   REMARKS
PENTICTON      PTSUNNY   55  43  62 VRB2      30.01F
CASTLEGAR      PTSUNNY   54  50  87 CALM      30.00S
CRANBROOK      PTSUNNY   54  45  71 VRB2      29.97S

...WESTERN MONTANA...

CITY           SKY/WX    TMP DP  RH WIND       PRES   REMARKS
MISSOULA       CLOUDY    51  47  86 CALM      30.05R

...NEIGHBORING CITIES...

CITY           SKY/WX    TMP DP  RH WIND       PRES   REMARKS
SEATTLE        CLOUDY    52  43  71 S9        30.20S
CALGARY        PTSUNNY   52  46  82 NW2       29.95R



USA.gov is the U.S. government's official web portal to all federal, state and local government web resources and services.